Ann Arbor, MI

9:09 PM EST on February 06, 2016 (GMT -0500)
Polo Fields | | Change Station
CLOSE
Current Station
Personal Weather Station
Location: Ann Arbor, MI
Elevation: 912 ft
Nearby Weather Stations

Elev 912 ft 42.27 °N, 83.82 °W | Updated 9 seconds ago

Clear
Clear
32.7 °F
Feels Like 33 °F
N
2.7
Wind Variable Wind from SSW
Gusts 3.2 mph

Today
High -- | Low -- °F
--% Chance of Precip.
Yesterday
High -- | Low -- °F
Precip. -- in
Pressure 30.20 in
Visibility 10.0 miles
Clouds Overcast 3400 ft
Windchill 33 °F
Dew Point 25 °F
Humidity 74%
Rainfall 0.00 in
Snow Depth Not available.
7:43 AM 5:55 PM
Waning Crescent, 3% visible
METAR KARB 070153Z AUTO 23006KT 10SM OVC034 01/M05 A3017 RMK AO2 SLP226 T00061050 TSNO
Pressure 30.20 in
Visibility 10.0 miles
Clouds Overcast 3400 ft
Windchill 33 °F
Dew Point 25 °F
Humidity 74%
Rainfall 0.00 in
Snow Depth Not available.
7:43 AM 5:55 PM
Waning Crescent, 3% visible
METAR KARB 070153Z AUTO 23006KT 10SM OVC034 01/M05 A3017 RMK AO2 SLP226 T00061050 TSNO

10-Day Weather Forecast

Almanac

Astronomy

Feb. 06, 2016 Rise Set
Actual Time
Civil Twilight
Nautical Twilight
Astronomical Twilight
Moon
Length of Visible Light
Length of Day
Tomorrow will be .
, % of the Moon is Illuminated

Today's Extremes

State Highs State Lows

Community

WunderPhotos

Upload Photos

1,891,132 photos uploaded!

WunderBlog® & News

Nearby

Air Quality

  Air Quality AQ Index Pollutant
Not available.

Snow Depth

Station Depth Elevation

Earthquake Activity

City Distance Mag. Time & Date
Minimum magnitude displayed is 2.5.

Coastal Water Temperatures

Place Temperature

Stations

Nearby Weather Stations

Station Location Temp. Windchill Dew Point Humidity Wind Precip. Elev Updated Type
                   

Watches & Warnings

There are currently no watches in effect.